CFG3PS LGSR-EDDM

Flight info

Callsign CFG3PS
Flight time N/A
Altitude 34000
Route MADEX UL53 AKORO UL617 MAKED DCT LONTA UL608 DOLEV DCT GORPA DCT BERTA DCT RASTA DCT REDBU Q112 NAPSA
Aircraft A321/M-SDE3FGHIRWY/LB1

Departure

Time 2026-05-09 17:09
Airport Santorini International Airport (LGSR)

Arrival

Time N/A
Airport Munich Airport (EDDM)
Time Latitude Longitude Altitude Speed Heading
2026-05-09 16:34 36.40382 25.47363 91 ft 0 kts 249°
2026-05-09 16:59 36.40393 25.47390 91 ft 4 kts 228°
2026-05-09 16:59 36.40413 25.47407 91 ft 4 kts 185°
2026-05-09 16:59 36.40430 25.47405 90 ft 1 kts 159°
2026-05-09 16:59 36.40433 25.47404 90 ft 0 kts 159°
2026-05-09 17:04 36.40219 25.47504 90 ft 17 kts 159°
2026-05-09 17:05 36.40136 25.47550 88 ft 8 kts 136°
2026-05-09 17:05 36.40135 25.47609 90 ft 7 kts 83°
2026-05-09 17:05 36.40111 25.47655 88 ft 7 kts 150°
2026-05-09 17:05 36.40058 25.47681 89 ft 10 kts 160°
2026-05-09 17:06 36.39973 25.47721 88 ft 16 kts 159°
2026-05-09 17:06 36.39845 25.47782 88 ft 23 kts 159°
2026-05-09 17:06 36.39671 25.47865 81 ft 29 kts 159°
2026-05-09 17:06 36.39485 25.47952 65 ft 28 kts 159°
2026-05-09 17:07 36.39297 25.48042 63 ft 30 kts 159°
2026-05-09 17:07 36.39166 25.48104 60 ft 30 kts 159°
2026-05-09 17:07 36.39015 25.48183 53 ft 13 kts 135°
2026-05-09 17:07 36.39020 25.48266 52 ft 9 kts 65°
2026-05-09 17:08 36.39040 25.48317 54 ft 4 kts 44°
2026-05-09 17:08 36.39078 25.48313 53 ft 1 kts 339°
2026-05-09 17:08 36.39111 25.48298 57 ft 25 kts 340°
2026-05-09 17:09 36.39576 25.48077 64 ft 113 kts 339°
2026-05-09 17:09 36.40521 25.47629 154 ft 172 kts 339°
2026-05-09 17:09 36.41662 25.47114 976 ft 177 kts 342°
2026-05-09 17:09 36.42847 25.46722 1981 ft 176 kts 342°
2026-05-09 17:10 36.44105 25.46346 2617 ft 197 kts 343°
2026-05-09 17:10 36.45523 25.45921 2939 ft 221 kts 342°
2026-05-09 17:10 36.47096 25.45444 3176 ft 245 kts 342°
2026-05-09 17:10 36.47623 25.45284 3264 ft 252 kts 342°
2026-05-09 17:11 36.49382 25.44745 3728 ft 266 kts 342°
2026-05-09 17:11 36.51203 25.44191 4392 ft 273 kts 341°
2026-05-09 17:11 36.53066 25.43624 5124 ft 277 kts 341°
2026-05-09 17:11 36.54941 25.43052 5878 ft 279 kts 341°
2026-05-09 17:12 36.56827 25.42472 6620 ft 281 kts 341°
2026-05-09 17:12 36.58731 25.41881 7352 ft 282 kts 341°
2026-05-09 17:12 36.60643 25.41286 8081 ft 284 kts 341°
2026-05-09 17:12 36.62562 25.40688 8814 ft 285 kts 340°
2026-05-09 17:13 36.64398 25.39821 9532 ft 281 kts 326°
2026-05-09 17:13 36.65955 25.38402 10213 ft 276 kts 311°
2026-05-09 17:13 36.67164 25.36549 10763 ft 281 kts 302°
2026-05-09 17:13 36.68323 25.34472 10900 ft 303 kts 302°
2026-05-09 17:14 36.69562 25.32238 11024 ft 324 kts 302°
2026-05-09 17:14 36.70886 25.29861 11250 ft 340 kts 302°
2026-05-09 17:14 36.72254 25.27423 11787 ft 345 kts 302°
2026-05-09 17:14 36.73638 25.24966 12423 ft 348 kts 302°
2026-05-09 17:15 36.75035 25.22487 13058 ft 350 kts 302°
2026-05-09 17:15 36.76439 25.19987 13684 ft 353 kts 302°
2026-05-09 17:15 36.77849 25.17466 14236 ft 355 kts 302°
2026-05-09 17:15 36.79267 25.14930 14784 ft 358 kts 302°
2026-05-09 17:16 36.80693 25.12375 15325 ft 360 kts 302°
2026-05-09 17:17 36.90878 24.94072 18884 ft 374 kts 302°
2026-05-09 17:18 36.92364 24.91398 19319 ft 375 kts 303°
2026-05-09 17:18 36.93854 24.88711 19755 ft 376 kts 303°
2026-05-09 17:18 36.95347 24.86015 20191 ft 378 kts 303°
2026-05-09 17:18 36.96845 24.83304 20618 ft 379 kts 303°
2026-05-09 17:19 36.98348 24.80581 21049 ft 381 kts 303°
2026-05-09 17:19 36.99856 24.77849 21478 ft 382 kts 303°
2026-05-09 17:19 37.01354 24.75135 21898 ft 384 kts 303°
2026-05-09 17:19 37.02876 24.72380 22313 ft 385 kts 303°
2026-05-09 17:20 37.04405 24.69613 22735 ft 387 kts 303°
2026-05-09 17:20 37.05939 24.66830 23130 ft 389 kts 303°
2026-05-09 17:20 37.07475 24.64038 23542 ft 390 kts 303°
2026-05-09 17:20 37.09016 24.61233 23872 ft 392 kts 303°
2026-05-09 17:21 37.10563 24.58413 24195 ft 394 kts 303°
2026-05-09 17:21 37.12114 24.55583 24513 ft 395 kts 303°
2026-05-09 17:21 37.13676 24.52731 24841 ft 397 kts 303°
2026-05-09 17:21 37.15240 24.49872 25154 ft 398 kts 304°
2026-05-09 17:22 37.16811 24.47001 25427 ft 400 kts 303°
2026-05-09 17:22 37.18416 24.44143 25746 ft 402 kts 307°
2026-05-09 17:22 37.20367 24.41610 26072 ft 406 kts 317°
2026-05-09 17:22 37.22710 24.39599 26364 ft 412 kts 328°
2026-05-09 17:23 37.25380 24.38201 26647 ft 421 kts 338°
2026-05-09 17:23 37.28253 24.37355 26897 ft 426 kts 342°
2026-05-09 17:23 37.31151 24.36569 27191 ft 428 kts 342°
2026-05-09 17:23 37.34063 24.35781 27481 ft 429 kts 342°
2026-05-09 17:25 37.48685 24.31796 29216 ft 428 kts 342°
2026-05-09 17:25 37.51595 24.31005 29609 ft 426 kts 342°
2026-05-09 17:25 37.54490 24.30214 29967 ft 425 kts 342°
2026-05-09 17:25 37.57321 24.29223 30290 ft 420 kts 336°
2026-05-09 17:26 37.60090 24.28077 30668 ft 418 kts 336°
2026-05-09 17:26 37.62849 24.26941 31028 ft 415 kts 336°
2026-05-09 17:26 37.65591 24.25815 31385 ft 413 kts 336°
2026-05-09 17:26 37.68323 24.24693 31780 ft 411 kts 336°
2026-05-09 17:27 37.70115 24.23955 32045 ft 408 kts 336°
2026-05-09 17:27 37.73714 24.22467 32547 ft 405 kts 336°
2026-05-09 17:27 37.76382 24.21359 32910 ft 403 kts 336°
2026-05-09 17:27 37.78146 24.20627 33142 ft 402 kts 336°
2026-05-09 17:28 37.80797 24.19532 33494 ft 400 kts 336°
2026-05-09 17:28 37.83439 24.18441 33843 ft 398 kts 336°
2026-05-09 17:28 37.86074 24.17352 34008 ft 396 kts 336°
2026-05-09 17:28 37.88683 24.16270 34024 ft 393 kts 336°
2026-05-09 17:29 37.93839 24.14129 34021 ft 391 kts 336°
2026-05-09 17:29 37.99001 24.11983 34022 ft 390 kts 336°
2026-05-09 17:30 38.04158 24.09834 34025 ft 390 kts 336°
2026-05-09 17:30 38.09319 24.07679 34026 ft 390 kts 336°
2026-05-09 17:31 38.14484 24.05531 34018 ft 391 kts 336°
2026-05-09 17:32 38.27400 24.00129 34019 ft 393 kts 336°
2026-05-09 17:33 38.32595 23.97943 34022 ft 393 kts 336°
2026-05-09 17:33 38.37802 23.95751 34049 ft 393 kts 336°
2026-05-09 17:34 38.42996 23.93566 34047 ft 393 kts 336°
2026-05-09 17:35 38.61110 23.85913 34036 ft 392 kts 336°
2026-05-09 17:36 38.66289 23.83718 34047 ft 391 kts 336°
2026-05-09 17:36 38.71455 23.81530 34047 ft 391 kts 336°
2026-05-09 17:37 38.76615 23.79336 34050 ft 390 kts 336°
2026-05-09 17:37 38.81778 23.77139 34048 ft 390 kts 336°
2026-05-09 17:38 38.86900 23.74960 34055 ft 390 kts 336°
2026-05-09 17:39 38.94642 23.71651 34026 ft 391 kts 336°
2026-05-09 17:39 38.99819 23.69433 34017 ft 392 kts 336°
2026-05-09 17:40 39.05008 23.67211 34012 ft 393 kts 336°
2026-05-09 17:40 39.10195 23.64984 34038 ft 393 kts 336°
2026-05-09 17:41 39.15373 23.62757 34031 ft 392 kts 336°
2026-05-09 17:41 39.20534 23.60496 34021 ft 390 kts 335°
2026-05-09 17:42 39.25616 23.58049 34021 ft 390 kts 334°
2026-05-09 17:42 39.30689 23.55548 34024 ft 390 kts 334°
2026-05-09 17:43 39.35751 23.53067 34039 ft 389 kts 334°
2026-05-09 17:43 39.40788 23.50623 34060 ft 389 kts 334°
2026-05-09 17:44 39.45856 23.48182 34057 ft 388 kts 334°
2026-05-09 17:44 39.50950 23.45723 34057 ft 388 kts 334°
2026-05-09 17:45 39.55977 23.43291 34078 ft 388 kts 334°
2026-05-09 17:45 39.61026 23.40834 34061 ft 388 kts 334°
2026-05-09 17:46 39.66083 23.38370 34045 ft 388 kts 334°
2026-05-09 17:46 39.71148 23.35897 34042 ft 389 kts 334°
2026-05-09 17:47 39.76216 23.33423 34045 ft 389 kts 334°
2026-05-09 17:47 39.81283 23.30945 34068 ft 389 kts 334°
2026-05-09 17:48 39.86344 23.28468 34060 ft 388 kts 334°
2026-05-09 17:48 39.91387 23.25995 34056 ft 387 kts 334°
2026-05-09 17:49 39.96429 23.23520 34050 ft 387 kts 334°
2026-05-09 17:49 40.01466 23.21040 34069 ft 387 kts 334°
2026-05-09 17:50 40.06498 23.18561 34069 ft 386 kts 334°
2026-05-09 17:50 40.14023 23.14839 34061 ft 385 kts 334°
2026-05-09 17:51 40.19030 23.12358 34051 ft 385 kts 334°
2026-05-09 17:51 40.24034 23.09875 34057 ft 385 kts 334°
2026-05-09 17:52 40.29023 23.07405 34042 ft 385 kts 334°
2026-05-09 17:52 40.34041 23.04913 34027 ft 385 kts 334°
2026-05-09 17:53 40.39051 23.02417 34025 ft 385 kts 334°
2026-05-09 17:53 40.44071 22.99904 34026 ft 386 kts 334°
2026-05-09 17:54 40.48845 22.96903 34020 ft 381 kts 328°
2026-05-09 17:54 40.53526 22.93636 34015 ft 381 kts 328°
2026-05-09 17:55 40.58207 22.90361 34014 ft 381 kts 328°
2026-05-09 17:55 40.62906 22.87072 34016 ft 382 kts 328°
2026-05-09 17:56 40.67596 22.83770 34016 ft 382 kts 328°
2026-05-09 17:57 40.74617 22.78819 34042 ft 382 kts 328°
2026-05-09 17:57 40.79320 22.75503 34033 ft 383 kts 327°
2026-05-09 17:58 40.84011 22.72197 34028 ft 385 kts 327°
2026-05-09 17:58 40.88740 22.68849 34016 ft 383 kts 327°
2026-05-09 17:59 40.93430 22.65534 34012 ft 382 kts 327°
2026-05-09 17:59 40.98116 22.62210 34035 ft 382 kts 327°
2026-05-09 18:00 41.02802 22.58882 34034 ft 382 kts 327°
2026-05-09 18:00 41.07450 22.55568 34037 ft 381 kts 327°
2026-05-09 18:01 41.12127 22.52223 34037 ft 380 kts 326°
2026-05-09 18:01 41.16341 22.48049 34034 ft 377 kts 319°
2026-05-09 18:02 41.20401 22.43705 34052 ft 377 kts 318°
2026-05-09 18:02 41.24500 22.39320 34045 ft 377 kts 318°
2026-05-09 18:03 41.28604 22.34934 34043 ft 378 kts 318°
2026-05-09 18:03 41.32683 22.30570 34042 ft 378 kts 318°
2026-05-09 18:04 41.36765 22.26186 34038 ft 378 kts 318°
2026-05-09 18:04 41.40851 22.21779 34045 ft 378 kts 318°
2026-05-09 18:05 41.44943 22.17372 34066 ft 377 kts 318°
2026-05-09 18:05 41.49021 22.12981 34056 ft 377 kts 318°
2026-05-09 18:06 41.53107 22.08563 34049 ft 378 kts 317°
2026-05-09 18:06 41.57166 22.04167 34047 ft 378 kts 317°
2026-05-09 18:07 41.61255 21.99737 34044 ft 378 kts 317°
2026-05-09 18:07 41.65351 21.95292 34037 ft 378 kts 317°
2026-05-09 18:08 41.69433 21.90851 34062 ft 378 kts 317°
2026-05-09 18:08 41.73496 21.86422 34064 ft 378 kts 317°
2026-05-09 18:09 41.77578 21.81969 34067 ft 377 kts 317°
2026-05-09 18:09 41.81637 21.77533 34065 ft 378 kts 317°
2026-05-09 18:10 41.85717 21.73074 34067 ft 378 kts 317°
2026-05-09 18:10 41.89770 21.68621 34067 ft 379 kts 317°
2026-05-09 18:11 41.93851 21.64131 34066 ft 379 kts 317°
2026-05-09 18:11 41.97906 21.59675 34086 ft 379 kts 317°
2026-05-09 18:12 42.01328 21.55906 34069 ft 379 kts 317°
2026-05-09 18:12 42.05410 21.51398 34076 ft 379 kts 317°
2026-05-09 18:13 42.09485 21.46889 34076 ft 379 kts 317°
2026-05-09 18:13 42.13530 21.42399 34072 ft 378 kts 317°
2026-05-09 18:14 42.17324 21.37537 34080 ft 375 kts 308°
2026-05-09 18:14 42.20711 21.32164 34102 ft 375 kts 309°
2026-05-09 18:15 42.24080 21.26828 34095 ft 375 kts 309°
2026-05-09 18:15 42.27462 21.21455 34105 ft 375 kts 308°
2026-05-09 18:16 42.30839 21.16081 34114 ft 375 kts 308°
2026-05-09 18:16 42.34217 21.10701 34118 ft 375 kts 308°
2026-05-09 18:17 42.37570 21.05352 34117 ft 375 kts 308°
2026-05-09 18:17 42.40946 20.99943 34123 ft 376 kts 308°
2026-05-09 18:18 42.44303 20.94556 34130 ft 376 kts 308°
2026-05-09 18:18 42.47673 20.89138 34144 ft 376 kts 308°